Simultaneous Nadir Overpasses (SNOs) Predictions

Prediction of SNOs between AQUA and LANDSAT-8 Satellite Orbit:

Table of predicted SNOs for the next 14.0 days since TLE Epoch: 5/4/2024
Index Date (AQUA) Time (AQUA) Lat,Lon (AQUA) SZA (AQUA ) Date (LANDSAT-8) Time (LANDSAT-8) Lat,Lon (LANDSAT-8) SZA (LANDSAT-8 ) Distance(km) Time Diff (sec)
1 05/11/2024 14:59:55 72.90, -41.25 54.75 05/11/2024 14:58:51 72.88, -44.16 54.68 95.15 64
2 05/11/2024 15:49:22 -73.20, 125.80 124.97 05/11/2024 15:48:13 -73.19, 124.08 125.02 55.24 69
3 05/11/2024 16:38:46 73.24, -66.63 55.06 05/11/2024 16:37:37 73.25, -68.14 55.04 48.50 69
4 05/11/2024 17:28:12 -73.48, 100.52 124.72 05/11/2024 17:27:00 -73.50, 100.01 124.71 16.01 72
5 05/11/2024 18:17:37 73.58, -92.03 55.37 05/11/2024 18:16:24 73.57, -92.20 55.35 5.38 73
6 05/11/2024 19:06:59 -73.61, 75.55 124.61 05/11/2024 19:05:51 -73.61, 75.52 124.62 1.12 68
7 05/11/2024 19:56:22 73.60,-116.77 55.37 05/11/2024 19:55:16 73.63,-116.81 55.39 2.92 66
8 05/11/2024 20:45:44 -73.64, 50.82 124.60 05/11/2024 20:44:44 -73.61, 50.80 124.63 2.69 60
9 05/11/2024 21:35:07 73.63,-141.51 55.38 05/11/2024 21:34:09 73.63,-141.52 55.38 0.56 58
10 05/11/2024 22:24:28 -73.61, 26.19 124.65 05/11/2024 22:23:37 -73.61, 26.08 124.65 3.45 51
11 05/11/2024 23:13:52 73.65,-166.24 55.39 05/11/2024 23:13:02 73.63,-166.24 55.36 2.39 50
12 05/12/2024 00:03:13 -73.63, 1.46 124.64 05/12/2024 00:02:30 -73.62, 1.37 124.66 3.33 43
13 05/12/2024 00:52:36 73.62, 169.13 55.34 05/12/2024 00:51:55 73.63, 169.04 55.35 2.95 41
14 05/12/2024 01:41:58 -73.66, -23.28 124.64 05/12/2024 01:41:22 -73.67, -23.24 124.62 1.98 36
15 05/12/2024 02:31:21 73.65, 144.39 55.35 05/12/2024 02:30:48 73.63, 144.33 55.33 2.73 33
16 05/12/2024 03:20:43 -73.68, -48.02 124.63 05/12/2024 03:20:15 -73.67, -47.95 124.64 2.34 28
17 05/12/2024 04:10:06 73.67, 119.66 55.36 05/12/2024 04:09:40 73.69, 119.72 55.37 2.57 26
18 05/12/2024 04:59:27 -73.65, -72.64 124.67 05/12/2024 04:59:08 -73.67, -72.67 124.66 2.29 19
19 05/12/2024 05:48:51 73.70, 94.92 55.36 05/12/2024 05:48:33 73.69, 95.00 55.36 2.84 18
20 05/12/2024 06:38:12 -73.68, -97.38 124.67 05/12/2024 06:38:01 -73.68, -97.39 124.67 0.45 11
21 05/12/2024 07:27:35 73.67, 70.29 55.32 05/12/2024 07:27:26 73.69, 70.29 55.34 2.29 9
22 05/12/2024 08:16:57 -73.70,-122.12 124.66 05/12/2024 08:16:54 -73.68,-122.11 124.69 2.97 3
23 05/12/2024 09:06:20 73.69, 45.55 55.33 05/12/2024 09:06:19 73.69, 45.57 55.32 0.51 1
24 05/12/2024 09:55:41 -73.68,-146.75 124.70 05/12/2024 09:55:47 -73.68,-146.82 124.70 2.46 6
25 05/12/2024 10:45:05 73.72, 20.82 55.33 05/12/2024 10:45:12 73.69, 20.85 55.31 3.05 7
26 05/12/2024 11:34:26 -73.70,-171.48 124.70 05/12/2024 11:34:40 -73.68,-171.54 124.72 2.87 14
27 05/12/2024 12:23:49 73.69, -3.81 55.29 05/12/2024 12:24:05 73.69, -3.87 55.29 1.85 16
28 05/12/2024 13:13:11 -73.73, 163.78 124.69 05/12/2024 13:13:32 -73.73, 163.85 124.68 2.60 21
29 05/12/2024 14:02:34 73.72, -28.55 55.30 05/12/2024 14:02:58 73.70, -28.58 55.28 2.48 24
30 05/12/2024 14:51:56 -73.75, 139.04 124.68 05/12/2024 14:52:25 -73.74, 139.14 124.69 3.46 29
31 05/12/2024 15:41:19 73.74, -53.29 55.30 05/12/2024 15:41:50 73.75, -53.19 55.32 3.24 31
32 05/12/2024 16:30:40 -73.72, 114.41 124.73 05/12/2024 16:31:18 -73.74, 114.42 124.71 1.63 38
33 05/12/2024 17:20:03 73.71, -77.91 55.26 05/12/2024 17:20:44 73.70, -78.02 55.25 3.72 41
34 05/12/2024 18:09:25 -73.75, 89.67 124.72 05/12/2024 18:10:11 -73.74, 89.70 124.72 1.28 46
35 05/12/2024 18:58:48 73.74,-102.65 55.27 05/12/2024 18:59:36 73.75,-102.62 55.29 1.83 48
36 05/12/2024 19:48:09 -73.72, 65.05 124.76 05/12/2024 19:49:04 -73.74, 64.99 124.74 3.03 55
37 05/12/2024 20:37:33 73.76,-127.39 55.28 05/12/2024 20:38:29 73.76,-127.34 55.27 1.83 56
38 05/12/2024 21:26:54 -73.75, 40.31 124.75 05/12/2024 21:27:57 -73.74, 40.27 124.75 1.39 63
39 05/12/2024 22:16:17 73.74,-152.01 55.23 05/12/2024 22:17:22 73.76,-152.06 55.26 2.58 65
40 05/12/2024 23:05:39 -73.77, 15.57 124.75 05/12/2024 23:06:50 -73.74, 15.55 124.77 2.98 71
41 05/12/2024 23:55:03 73.81,-176.87 55.29 05/12/2024 23:56:14 73.81,-176.66 55.30 6.50 71
42 05/13/2024 00:44:29 -74.05, -9.76 124.49 05/13/2024 00:45:38 -74.01, -8.59 124.51 35.98 69
43 05/13/2024 01:33:53 74.10, 157.80 55.55 05/13/2024 01:35:02 74.07, 159.20 55.55 42.97 69
44 05/13/2024 02:23:19 -74.33, -35.10 124.23 05/13/2024 02:24:25 -74.32, -32.60 124.20 75.34 66
45 05/13/2024 03:12:44 74.43, 132.32 55.86 05/13/2024 03:13:49 74.38, 135.21 55.86 86.55 65



Historial Predications of SNOs between AQUA and LANDSAT-8
